sat.trackr.live / text

‹ back to catalog

STARLINK-35048

NORAD 65286 · 2025-184P

PAYLOAD ACTIVE UNKNOWN

§ Identity

Operator
Country
US
Launch date
2025-08-22
Launch site
AFWTR
Launch vehicle
Mass (kg)
RCS (m²)

Purposes: comms

External: N2YO · Heavens-Above · Gunter

§ Orbital elements

Epoch: 2026-09-20T20:23:21.579648Z

Period
93.90 min
Inclination
97.2837°
Eccentricity
0.0002204
Mean motion
15.33472650 rev/d
Perigee alt
464.0 km
Apogee alt
467.0 km
Semi-major
6,843.6 km
B*
5.6871e-4
RAAN
311.7496°
Arg perigee
86.1258°
Mean anomaly
274.0236°
Rev number
6,072

§ Raw data

STARLINK-350481 65286U 25184P   26263.84955532  .00018346  00000+0  56871-3 0  99982 65286  97.2837 311.7496 0002204  86.1258 274.0236 15.33472650 60729

JSON: /api/v1/satellites/65286 · /tle

For live sub-satellite position, see the globe view (requires WebGL).

§ Visibility from observer

Set your observer location to see the next 7 days of passes ≥ 10°. The values pass through the URL so the page stays shareable.

No JS? Fill the form by hand. The geolocation button needs JavaScript.